Location: Angwan Shehu
(11.2514°N, 7.4613°E)
Time: 14:11:24
(UTC+00:00)

Vanguard 2 - Visible Passes

Search period start: 23 April 2021 00:00
Search period end: 03 May 2021 00:00
Orbit: 552 x 2938 km, 32.9° (Epoch: 22 April)

Date Brightness Start Highest point End Pass type
(mag) Time Alt. Az. Time Alt. Az. Time Alt. Az.
23 Apr 11.5 04:29:06 10° SSE 04:32:56 11° SE 04:37:05 10° SE visible
23 Apr 9.7 19:56:02 10° WSW 19:57:43 13° SW 19:57:43 13° SW visible
24 Apr 11.3 04:43:05 10° S 04:51:05 18° SE 05:00:38 10° ESE visible
24 Apr 7.9 18:00:57 10° WNW 18:08:16 74° SW 18:12:56 10° SE visible
25 Apr 8.6 18:19:13 10° WNW 18:25:50 42° SW 18:30:17 10° SSE visible
26 Apr 9.5 18:37:59 10° W 18:43:15 24° SW 18:47:09 10° SSE visible
27 Apr 11.3 03:32:06 10° SE 03:33:45 10° SE 03:35:30 10° SE visible
27 Apr 9.8 18:57:47 10° WSW 19:00:38 13° SW 19:03:05 10° SSW visible
28 Apr 11.1 03:45:01 10° S 03:51:37 17° SE 03:59:49 10° E visible
29 Apr 10.8 04:00:51 10° S 04:09:17 25° SE 04:20:40 10° E visible
30 Apr 10.7 04:17:23 10° SSW 04:26:49 36° SE 04:40:26 10° ENE visible
01 May 10.5 04:34:18 10° SSW 04:44:21 48° SE 04:59:32 10° ENE visible
02 May 10.7 02:47:48 11° SSE 02:52:35 16° SE 02:58:56 10° ESE visible
